Location: Sungai Bunut
(2.6333°N, 113.7333°E)
Time: 19:22:55
(UTC+00:00)

Cosmos 1726 - Pass Details

Date: 16 October 2021
Orbit: 479 x 494 km, 82.5° (Epoch: 08 December)

Event Time Altitude Azimuth Distance (km) Brightness Sun altitude
Rises 21:38:18 0° 344° (NNW) 2,552 5.5 -8.4°
Reaches altitude 10° 21:40:28 10° 337° (NNW) 1,676 4.5 -7.8°
Maximum altitude 21:43:56 40° 266° (W) 739 2.5 -7.0°
Drops below altitude 10° 21:47:25 10° 196° (SSW) 1,687 4.7 -6.1°
Sets 21:49:36 0° 188° (S) 2,572 5.8 -5.6°
